Showing default

KUIPER-00070, 64817

Orbit data source: Space-Track

KUIPER-00070, 64817 is a payload satellite owned by Kuiper Systems (US) in LEO that was launched on Wed, 16 Jul 2025 UTC via an FALCON 9 launch vehicle from the Air Force Eastern Test Range (AFETR). Payload-class satellites include a variety of spacecraft equipped with specific instruments for various scientific and technological missions. These include communications satellites like Starlink; space stations such as the ISS; scientific satellites like the Hubble; Earth observation satellites from companies like Planet Labs, Umbra, and HawkEye 360; GPS; miniature CubeSats for education and research; and military/defense satellites.

Loading next visibility...
Identifier
64817, 2025-151B
Orbit
LEO
Country
Flag of USUS
Related business
Manufacturer
Kuiper Systems
Mission
Operational Commercial Communications
Bus & Motor
KUIPER, Unknown motor
Mass
~490 kg wet, ~490 kg dry
Launch date (UTC)
2025-07-16 (11 months ago)
Launch vehicle
FALCON 9
Launch site
Air Force Eastern Test Range (AFETR)
Object type
Payload
Rocket body
Debris
Shape & HBR
Box + 2 Pan, 3.4 m
Radar Cross Section
2.326 m², Large (>1 m²)

Expand to show TLE details & history
Last TLE update: 23 hours ago

TLE from 23 hours ago
0 KUIPER-00070
1 64817U 25151B   26168.46242891  .00001986  00000-0  28952-3 0  9992
2 64817  51.8992 224.3613 0000516  81.6060 278.4960 14.79924992 51194
Epoch: 2026-06-17T11:05Z
TLE epoch observation values (Epoch: 2026-06-17T11:05:53.857Z)
Latitude
-0.0001°
Longitude
152.16705°
Altitude
630.254 km
Speed
7.545 km/s
True Right ascension
14h 57m 26s
True Declination
0° 00' 00"
Sunlit
Object was in full shadow at epoch
Visualization orbit readout
Latitude
Unknown
Longitude
Unknown
Altitude
Unknown
Speed
Unknown
Apparent Right ascension
Unknown
Apparent Declination
Unknown
Sunlit
N/A
Visualization observer readout
Local Sidereal Time
20:28:22
Azimuth
Unknown
Elevation
Unknown
Doppler factor
Unknown
Orbital elements
Apogee altitude
630.374 km
Perigee altitude
629.651 km
Semi-major axis
7,008.149 km
Eccentricity
0.00005
Inclination
51.8992°
RAAN
224.3613°
Arg. of periapsis
81.606°
True anomaly
278.49015°
Mean anomaly
278.496°
Eccentric anomaly
278.49308°
Mean motion
3.69946 °/min
Orbital period
97.31 mins
BSTAR
0.00028952
Loading maneuver chart data...
Computing Atmospheric mass density...
Loading historical data...
Loading historical data...
Loading historical data...
Loading historical data...
Loading historical data...
Loading historical data...
Loading historical data...

Documentation

Showing up to 5 results
|